Location: Complexul Astronomic Baia Mare
(47.6577°N, 23.5639°E)
Time: 06:46:10
(UTC+03:00)

ISS - Pass Details

Date: 22 May 2017
Orbit: 402 x 408 km, 51.6° (Epoch: 29 May)

Event Time Altitude Azimuth Distance (km) Brightness Sun altitude
Exits shadow 03:06:21 - 288° (WNW) 2,034 -0.4 -18.1°
Reaches altitude 10° 03:07:47 10° 294° (WNW) 1,469 -1.0 -18.0°
Maximum altitude 03:10:56 41° 6° (N) 607 -2.5 -17.7°
Drops below altitude 10° 03:14:04 10° 78° (ENE) 1,463 -0.5 -17.5°
Sets 03:16:13 0° 86° (E) 2,321 0.5 -17.3°
